| time (UTC) | temp F | wind direction | speed MPH | gust MPH | rain 1hr in | rain 24hr in | rain mn in | humidity % | barometer mb |
| 20260507064559 | 46 | 91 | 0.0 | 0.0 | 0.00 | 0.00 | 0.00 | 97 | 1014.9 |
| 20260507063058 | 45 | 91 | 0.0 | 1.0 | 0.00 | 0.00 | 0.00 | 96 | 1015.1 |
| 20260507061555 | 46 | 250 | 0.0 | 0.0 | 0.00 | 0.00 | 0.00 | 98 | 1015.0 |
| 20260507060054 | 45 | 249 | 0.0 | 0.0 | 0.00 | 0.00 | 0.00 | 97 | 1015.1 |
| 20260507054553 | 44 | 249 | 0.0 | 0.0 | 0.00 | 0.00 | 0.00 | 96 | 1014.8 |
| 20260507053052 | 45 | 249 | 0.0 | 0.0 | 0.00 | 0.00 | 0.00 | 97 | 1014.7 |
| 20260507051559 | 45 | 249 | 0.0 | 0.0 | 0.00 | 0.00 | 0.00 | 96 | 1014.6 |
| 20260507050104 | 45 | 249 | 0.0 | 0.0 | 0.00 | 0.00 | 0.00 | 96 | 1014.7 |
| 20260507044553 | 45 | 249 | 0.0 | 0.0 | 0.00 | 0.00 | 0.00 | 96 | 1014.6 |
| 20260507043047 | 45 | 249 | 0.0 | 0.0 | 0.00 | 0.00 | 0.00 | 96 | 1014.6 |
| 20260507041547 | 45 | 249 | 0.0 | 0.0 | 0.00 | 0.00 | 0.00 | 96 | 1014.6 |
| 20260507040048 | 46 | 249 | 0.0 | 0.0 | 0.00 | 0.00 | 0.00 | 96 | 1014.7 |
| 20260507034543 | 46 | 249 | 0.0 | 0.0 | 0.00 | 0.00 | 0.00 | 96 | 1014.8 |
| 20260507033046 | 46 | 249 | 0.0 | 0.0 | 0.00 | 0.00 | 0.00 | 96 | 1014.9 |
| 20260507031541 | 46 | 249 | 0.0 | 0.0 | 0.00 | 0.00 | 0.00 | 95 | 1014.9 |
| 20260507030039 | 46 | 249 | 0.0 | 0.0 | 0.00 | 0.00 | 0.00 | 95 | 1015.0 |
| 20260507024543 | 47 | 249 | 0.0 | 0.0 | 0.00 | 0.00 | 0.00 | 96 | 1014.9 |
| 20260507023038 | 46 | 249 | 0.0 | 0.0 | 0.00 | 0.00 | 0.00 | 94 | 1014.9 |
| 20260507021547 | 47 | 249 | 0.0 | 0.0 | 0.00 | 0.00 | 0.00 | 95 | 1015.0 |
| 20260507020034 | 47 | 249 | 0.0 | 0.0 | 0.00 | 0.00 | 0.00 | 94 | 1015.1 |
| 20260507014530 | 47 | 249 | 0.0 | 0.0 | 0.00 | 0.00 | 0.00 | 94 | 1015.1 |
| 20260507013034 | 48 | 249 | 0.0 | 0.0 | 0.00 | 0.00 | 0.00 | 94 | 1015.3 |
| 20260507011532 | 48 | 249 | 0.0 | 0.0 | 0.00 | 0.00 | 0.00 | 94 | 1015.4 |
| 20260507010037 | 48 | 249 | 0.0 | 0.0 | 0.00 | 0.00 | 0.00 | 94 | 1015.4 |
| 20260507004524 | 48 | 249 | 0.0 | 1.0 | 0.00 | 0.00 | 0.00 | 94 | 1015.5 |
| 20260507003023 | 48 | 249 | 0.0 | 0.0 | 0.00 | 0.00 | 0.00 | 93 | 1015.5 |
| 20260507001521 | 48 | 249 | 0.0 | 0.0 | 0.00 | 0.00 | 0.00 | 92 | 1015.6 |
| 20260507000019 | 48 | 249 | 0.0 | 0.0 | 0.00 | 0.00 | 0.00 | 91 | 1015.6 |
| 20260506230057 | 49 | 246 | 0.0 | 0.0 | 0.00 | 0.00 | 0.00 | 88 | 1015.6 |
| 20260506224554 | 50 | 246 | 0.0 | 0.0 | 0.00 | 0.00 | 0.00 | 87 | 1015.7 |
| 20260506223059 | 51 | 246 | 0.0 | 2.0 | 0.00 | 0.00 | 0.00 | 86 | 1015.8 |
| 20260506221555 | 52 | 259 | 0.0 | 3.0 | 0.00 | 0.00 | 0.00 | 84 | 1016.0 |
| 20260506220052 | 51 | 257 | 0.0 | 2.0 | 0.00 | 0.00 | 0.00 | 85 | 1016.1 |
| 20260506214552 | 52 | 231 | 0.0 | 1.0 | 0.00 | 0.00 | 0.00 | 85 | 1016.2 |
| 20260506213051 | 52 | 244 | 0.0 | 1.0 | 0.00 | 0.00 | 0.00 | 85 | 1016.2 |
| 20260506211551 | 52 | 245 | 0.0 | 0.0 | 0.00 | 0.00 | 0.00 | 86 | 1016.2 |
| 20260506210050 | 53 | 244 | 0.0 | 1.0 | 0.00 | 0.00 | 0.00 | 84 | 1016.0 |
| 20260506204557 | 54 | 248 | 0.0 | 0.0 | 0.00 | 0.00 | 0.00 | 81 | 1016.1 |
| 20260506203050 | 56 | 248 | 0.0 | 0.0 | 0.00 | 0.00 | 0.00 | 76 | 1015.9 |
| 20260506201550 | 58 | 248 | 0.0 | 1.0 | 0.00 | 0.00 | 0.00 | 73 | 1015.9 |
| 20260506200106 | 59 | 248 | 0.0 | 5.0 | 0.00 | 0.00 | 0.00 | 72 | 1015.8 |
| 20260506194555 | 59 | 248 | 2.0 | 5.0 | 0.00 | 0.00 | 0.00 | 71 | 1015.7 |
| 20260506193047 | 60 | 253 | 0.0 | 3.0 | 0.00 | 0.00 | 0.00 | 70 | 1015.7 |
| 20260506191546 | 60 | 244 | 0.0 | 4.0 | 0.00 | 0.00 | 0.00 | 69 | 1015.4 |
| 20260506190045 | 61 | 225 | 0.0 | 6.0 | 0.00 | 0.00 | 0.00 | 68 | 1015.2 |
| 20260506184544 | 61 | 250 | 3.0 | 7.0 | 0.00 | 0.00 | 0.00 | 66 | 1015.1 |
| 20260506183058 | 61 | 256 | 2.0 | 4.0 | 0.00 | 0.00 | 0.00 | 66 | 1015.4 |
| 20260506181549 | 62 | 250 | 3.0 | 7.0 | 0.00 | 0.00 | 0.00 | 63 | 1015.3 |
| 20260506180043 | 64 | 246 | 5.0 | 8.0 | 0.00 | 0.00 | 0.00 | 60 | 1015.3 |
| 20260506174540 | 65 | 241 | 2.0 | 8.0 | 0.00 | 0.00 | 0.00 | 61 | 1015.3 |
| 20260506173040 | 65 | 261 | 3.0 | 8.0 | 0.00 | 0.00 | 0.00 | 60 | 1015.4 |
| 20260506171544 | 66 | 223 | 3.0 | 9.0 | 0.00 | 0.00 | 0.00 | 60 | 1015.5 |
| 20260506170043 | 66 | 248 | 3.0 | 8.0 | 0.00 | 0.00 | 0.00 | 59 | 1015.6 |
| 20260506164545 | 66 | 252 | 3.0 | 9.0 | 0.00 | 0.00 | 0.00 | 60 | 1015.6 |
| 20260506163036 | 66 | 253 | 3.0 | 8.0 | 0.00 | 0.00 | 0.00 | 60 | 1015.6 |
| 20260506161539 | 66 | 251 | 4.0 | 12.0 | 0.00 | 0.00 | 0.00 | 59 | 1015.6 |
| 20260506160042 | 66 | 293 | 6.0 | 13.0 | 0.00 | 0.00 | 0.00 | 59 | 1015.7 |
| 20260506154532 | 67 | 226 | 6.0 | 12.0 | 0.00 | 0.00 | 0.00 | 57 | 1015.7 |
| 20260506153031 | 68 | 296 | 5.0 | 9.0 | 0.00 | 0.00 | 0.00 | 51 | 1015.6 |
| 20260506151535 | 69 | 252 | 1.0 | 7.0 | 0.00 | 0.00 | 0.00 | 43 | 1015.8 |
| 20260506150031 | 69 | 259 | 1.0 | 6.0 | 0.00 | 0.00 | 0.00 | 46 | 1016.1 |
| 20260506144525 | 68 | 80 | 1.0 | 6.0 | 0.00 | 0.00 | 0.00 | 43 | 1016.4 |
| 20260506143038 | 69 | 229 | 1.0 | 7.0 | 0.00 | 0.00 | 0.00 | 42 | 1016.5 |
| 20260506141521 | 69 | 262 | 1.0 | 7.0 | 0.00 | 0.00 | 0.00 | 43 | 1016.7 |
| 20260506140018 | 69 | 82 | 0.0 | 5.0 | 0.00 | 0.00 | 0.00 | 43 | 1017.1 |
| 20260506134516 | 70 | 266 | 0.0 | 3.0 | 0.00 | 0.00 | 0.00 | 49 | 1017.2 |
| 20260506133012 | 68 | 91 | 1.0 | 2.0 | 0.00 | 0.00 | 0.00 | 49 | 1017.3 |
| 20260506131515 | 67 | 352 | 0.0 | 3.0 | 0.00 | 0.00 | 0.00 | 45 | 1017.6 |
| 20260506130007 | 66 | 70 | 2.0 | 5.0 | 0.00 | 0.00 | 0.00 | 51 | 1017.7 |
| 20260506124503 | 67 | 78 | 0.0 | 3.0 | 0.00 | 0.00 | 0.00 | 54 | 1017.8 |
| 20260506123001 | 65 | 265 | 0.0 | 5.0 | 0.00 | 0.00 | 0.00 | 56 | 1018.0 |
| 20260506121603 | 66 | 358 | 1.0 | 3.0 | 0.00 | 0.00 | 0.00 | 56 | 1018.2 |
| 20260506120100 | 65 | 321 | 0.0 | 7.0 | 0.00 | 0.01 | 0.00 | 53 | 1018.4 |
| 20260506114555 | 65 | 134 | 4.0 | 7.0 | 0.00 | 0.01 | 0.00 | 51 | 1018.6 |
| 20260506113101 | 65 | 121 | 2.0 | 4.0 | 0.00 | 0.01 | 0.00 | 49 | 1018.8 |
| 20260506111551 | 65 | 333 | 0.0 | 7.0 | 0.00 | 0.01 | 0.00 | 57 | 1018.9 |
| 20260506110053 | 63 | 231 | 1.0 | 3.0 | 0.00 | 0.01 | 0.00 | 59 | 1019.2 |
| 20260506104543 | 62 | 57 | 1.0 | 4.0 | 0.00 | 0.01 | 0.00 | 67 | 1019.2 |
| 20260506103047 | 61 | 103 | 0.0 | 4.0 | 0.00 | 0.01 | 0.00 | 67 | 1019.2 |
| 20260506101553 | 62 | 105 | 0.0 | 2.0 | 0.00 | 0.01 | 0.00 | 69 | 1019.3 |
| 20260506100036 | 59 | 323 | 1.0 | 3.0 | 0.00 | 0.01 | 0.00 | 69 | 1019.4 |
| 20260506094536 | 59 | 255 | 0.0 | 4.0 | 0.00 | 0.01 | 0.00 | 74 | 1019.4 |
| 20260506093031 | 58 | 338 | 0.0 | 3.0 | 0.00 | 0.01 | 0.00 | 80 | 1019.5 |
| 20260506091529 | 55 | 169 | 0.0 | 2.0 | 0.00 | 0.01 | 0.00 | 85 | 1019.8 |
| 20260506090024 | 54 | 146 | 0.0 | 2.0 | 0.00 | 0.01 | 0.00 | 88 | 1019.9 |
| 20260506084527 | 53 | 167 | 0.0 | 3.0 | 0.00 | 0.01 | 0.00 | 90 | 1019.8 |
| 20260506083020 | 52 | 165 | 0.0 | 2.0 | 0.00 | 0.01 | 0.00 | 96 | 1019.8 |
| 20260506081519 | 50 | 150 | 0.0 | 1.0 | 0.00 | 0.01 | 0.00 | 96 | 1019.9 |
| 20260506073017 | 49 | 155 | 0.0 | 1.0 | 0.00 | 0.01 | 0.00 | 97 | 1019.8 |
| 20260506071518 | 49 | 234 | 0.0 | 0.0 | 0.00 | 0.01 | 0.00 | 98 | 1019.7 |